Regional Weather Roundup
Issued by NWS

Home | Current Version | Previous Version | Text Only | Print | Product List | Glossary Off
Versions: 1 2 3 4 5 6 7 8 9 10 11 12 13 14 15 16 17 18 19 20 21 22 23 24 25 26 27 28 29 30 31 32 33 34 35 36 37 38 39 40 41 42 43 44 45 46 47 48 49 50

000
ASUS43 KLOT 221310
RWRIL

ILLINOIS REGIONAL WEATHER ROUNDUP
NATIONAL WEATHER SERVICE CHICAGO/ROMEOVILLE IL
800 AM CDT WED OCT 22 2014

NOTE: "FAIR" INDICATES FEW OR NO CLOUDS BELOW 12,000 FEET WITH NO
SIGNIFICANT WEATHER AND/OR OBSTRUCTIONS TO VISIBILITY.

* THESE STATIONS ARE NOT UNDER NWS QUALITY CONTROL. THEY ALSO MAY NOT
  REPORT WEATHER SUCH AS PRECIPITATION OR FOG.

ILZ001-002-007-009-015-016-024-221400-
NORTHWEST ILLINOIS

CITY           SKY/WX    TMP DP  RH WIND       PRES   REMARKS
MOLINE         CLEAR     32  31  96 CALM      30.34R
STERLING*      CLEAR     32  28  86 E3        30.34S
SAVANNA*       CLEAR     34  33  94 NE5       30.34R FOG     WCI  30
$$

ILZ003-004-008-010-011-017-018-221400-
NORTH CENTRAL ILLINOIS

CITY           SKY/WX    TMP DP  RH WIND       PRES   REMARKS
ROCKFORD       PTCLDY    33  30  88 CALM      30.37R
FREEPORT*      FOG       27  26  96 CALM      30.37R VSB 1
ROCHELLE*      PTCLDY    29  29 100 CALM      30.35R FOG
DE KALB*       PTCLDY    34  33  96 NE3       30.35R FOG
PERU*          PTCLDY    35  33  96 NE3       30.35R
$$

ILZ005-006-012>014-019>023-221400-
NORTHEAST ILLINOIS

CITY           SKY/WX    TMP DP  RH WIND       PRES   REMARKS
CHICAGO-OHARE  PTCLDY    43  39  86 N6        30.34R
CHICAGO-MIDWAY PTCLDY    44  37  76 S7        30.34R
AURORA         CLEAR     32  30  92 CALM      30.34R FOG
LANSING*       CLEAR     36  35  96 CALM      30.35R
JOLIET*        CLEAR     33  33  99 CALM      30.35R
WAUKEGAN       PTCLDY    36  34  92 NW3       30.34R
DUPAGE AIRPORT CLEAR     36  34  92 NE3       30.33R
KANKAKEE*      CLEAR     35  35  98 E3        30.35R
WHEELING       CLEAR     43  38  82 NW5       30.35R
MORRIS*        CLEAR     37  37 100 CALM      30.33S
ROMEOVILLE*    FOG       35  35 100 SE5       30.35R VSB<1/4 WCI  31
NORTHERLY ISL    N/A     46  39  76 SE8         N/A
$$

LMZ740>746-221400-
SOUTHERN LAKE MICHIGAN

STATION/POSITION SKY/WX   TEMP    WIND        PRES    VSBY  WAVE
                          AIR SEA DIR/SP/G                  HT/PER
                          (F)     (DEG/KT/KT) (MB)    (MI)  (FT/S)
SOUTHERN BUOY              47 54  100/  6/  8 1028.4R         2/ 6
WAUKEGAN HARBOR            44     230/  2/  4   N/A
BURNHAM HARBOR             46     180/  5/ 13   N/A
CALUMET HARBOR             43     150/  3/  5 1026.2S
MICHIGAN CITY              39     100/  7/  9   N/A
$$

ILZ025>027-034>036-040-047-049-050-058-095>099-221400-
WEST-CENTRAL ILLINOIS

CITY           SKY/WX    TMP DP  RH WIND       PRES   REMARKS
QUINCY         CLEAR     40  37  89 SE5       30.30R
GALESBURG*     PTCLDY    37  36  95 E5        30.32R WCI  34
MACOMB*        FOG       31  31 100 CALM      30.34R VSB 1/2
JACKSONVILLE*  CLEAR     37  36  94 E5        30.32R FOG     WCI  34
PITTSFIELD*    CLEAR     39  38  94 CALM      30.32R FOG
$$

ILZ028>032-037-038-041>044-048-051>054-059>061-221400-
CENTRAL ILLINOIS

CITY           SKY/WX    TMP DP  RH WIND       PRES   REMARKS
PONTIAC        PTCLDY    32  31  99 CALM      30.35R FOG
BLOOMINGTON    CLEAR     37  36  96 NE5       30.34R FOG     WCI  33
DECATUR        CLEAR     36  34  92 NE3       30.33R
PEORIA         CLEAR     38  35  89 NE7       30.33R FOG     WCI  33
LACON*         FOG       32  32  99 CALM      30.33S VSB<1/4
LINCOLN*       CLEAR     37  36  96 CALM      30.33R FOG
SPRINGFIELD    CLEAR     38  35  89 NE3       30.32R
TAYLORVILLE    CLEAR     32  32 100 CALM      30.33R FOG
$$

ILZ033-039-045-046-055>057-062-063-221400-
EAST-CENTRAL ILLINOIS

CITY           SKY/WX    TMP DP  RH WIND       PRES   REMARKS
CHAMPAIGN      CLEAR     38  36  92 CALM      30.33R
DANVILLE*      CLEAR     37  35  92 CALM      30.31R
RANTOUL*       CLEAR     41  35  79 CALM      30.33S
MATTOON        CLEAR     35  33  92 CALM      30.31R
PARIS*         CLEAR     39  38  97 CALM      30.33R
$$

ILZ079-100>102-221400-
SOUTHWEST ILLINOIS

CITY           SKY/WX    TMP DP  RH WIND       PRES   REMARKS
ALTON          CLEAR     39  37  93 CALM      30.31R
BELLEVILLE     CLEAR     41  41  99 N2        30.30R
CAHOKIA*       CLEAR     40  39  97 CALM      30.31R
SPARTA*        PTCLDY    38  37  99 CALM      30.31R FOG
$$

ILZ064>066-069>071-074>076-080>082-084>086-088>090-092>094-221400-
SOUTH-CENTRAL ILLINOIS

CITY           SKY/WX    TMP DP  RH WIND       PRES   REMARKS
CARBONDALE     CLEAR     37  37 100 CALM      30.30R FOG
CAIRO*         CLEAR     44  40  87 CALM      30.28R
EFFINGHAM*     CLEAR     40  37  89 E3        30.31S
MARION         CLEAR     39  39 100 CALM      30.30R
MT. VERNON     CLEAR     41  36  81 N5        30.31R
CENTRALIA*     CLEAR     41  38  92 E3        30.30R FOG
SALEM*         CLEAR     43  41  92 CALM      30.31R
METROPOLIS*    CLEAR     43  43 100 CALM      30.28R
$$

ILZ067-068-072-073-078-083-087-091-221400-
SOUTHEAST ILLINOIS

CITY           SKY/WX    TMP DP  RH WIND       PRES   REMARKS
LAWRENCEVILLE  CLEAR     42  40  92 CALM      30.32R
FLORA*         CLEAR     40  39  95 CALM      30.32R
FAIRFIELD*     CLEAR     41  40  96 NE3       30.30R
HARRISBURG*    CLEAR     42  42 100 NE5       30.31R
ROBINSON*      CLEAR     40  40 100 CALM      30.32R FOG
CARMI*         FAIR      42  42 100 CALM      30.30R FOG
$$

ABBREVIATIONS USED IN REMARKS
   TC - TEMPERATURE IN CELSIUS
  WCI - WIND CHILL INDEX
   HX - HEAT INDEX
  VSB - VISIBILITY
$$




USA.gov is the U.S. government's official web portal to all federal, state and local government web resources and services.